Theta_e
331 330 332 334 336 337 337 338 338 338 338 337 337 337 337 337 337 335 334 333 333 335 336 337 338 338 338 338 337 337 338 337 335 334 334 332 333 334 335 336 336 337 337 337 337 336 336 337 338 338 338 338 336 336 336 335 334 334 332 331 331 329 325 323 322 320 324 333 335 337 337 327 330 338 339 339 338 336 337 338 336 335 335 335 335
329 332 333 333 335 336 337 339 338 338 338 337 337 337 337 337 337 336 336 334 334 336 337 336 337 338 338 338 338 337 338 338 337 337 336 334 335 336 336 337 338 337 338 338 337 337 337 336 337 338 338 337 337 336 337 336 335 335 335 334 333 332 328 324 322 319 320 330 335 337 340 338 339 341 339 338 339 338 338 338 335 333 334 335 334
328 333 334 333 335 336 337 338 338 338 338 338 338 338 338 338 337 336 337 336 336 337 337 337 338 338 338 338 338 337 337 337 338 337 337 337 336 337 337 337 338 338 337 337 337 337 337 336 336 337 337 336 336 336 335 335 335 336 336 336 335 334 332 327 324 321 316 323 333 335 335 336 337 337 336 334 336 338 339 337 334 333 333 334 334
330 333 333 333 334 336 336 337 337 337 338 338 338 339 338 338 337 337 337 337 337 337 337 338 338 338 338 337 337 337 337 337 337 337 337 337 336 337 337 337 338 337 337 337 337 337 337 337 337 336 336 336 336 336 335 335 336 336 336 335 335 333 331 328 325 324 318 317 327 335 335 334 336 338 338 336 334 335 338 338 336 336 334 332 329
331 333 333 332 332 335 336 336 337 336 337 337 338 338 338 338 337 337 337 337 337 337 337 338 338 337 337 337 337 337 337 337 336 336 335 335 336 336 337 337 337 337 337 337 337 337 337 337 336 335 335 334 335 335 335 335 336 335 334 333 333 331 329 328 326 325 322 319 322 332 336 336 337 340 341 340 336 332 334 335 334 332 330 329 324
332 333 333 331 331 333 335 336 337 336 336 337 337 337 338 338 337 337 338 338 337 337 337 337 337 336 337 337 337 337 336 336 335 335 333 334 334 334 335 336 336 336 337 337 337 337 336 335 334 334 334 333 333 333 333 333 334 333 332 332 331 330 328 327 326 325 325 322 320 324 332 336 337 338 341 341 338 334 333 333 332 330 329 328 325
331 332 333 331 331 332 332 334 335 336 336 337 337 336 337 337 337 337 337 338 337 338 337 336 337 336 336 336 335 335 335 334 334 333 332 332 332 332 333 334 334 335 336 335 335 335 334 333 332 333 332 332 332 331 331 331 331 331 330 330 329 328 327 327 326 326 325 324 323 321 324 332 336 336 338 341 340 337 336 336 334 333 332 330 327
329 330 330 329 330 330 330 331 332 333 334 334 333 334 335 336 335 335 336 335 335 336 335 335 335 335 334 334 334 333 333 333 331 331 330 330 330 330 330 331 332 333 334 333 333 332 332 331 331 331 330 329 329 328 328 328 328 328 328 328 327 327 326 326 326 326 326 326 325 324 322 326 332 335 336 338 339 339 338 337 335 334 333 329 328
328 328 327 327 327 328 328 329 329 329 331 329 331 332 333 335 334 334 335 334 334 334 334 334 334 334 333 332 332 331 331 330 329 328 328 327 327 328 328 329 329 330 331 330 330 329 329 329 329 327 327 326 325 324 323 324 323 323 323 322 322 323 323 323 324 324 326 326 326 326 325 323 325 331 335 336 337 338 338 337 335 333 332 329 327
328 327 326 325 325 327 327 326 327 327 328 328 330 331 332 333 333 333 334 333 333 333 333 332 332 332 331 330 330 330 329 328 327 326 325 325 325 325 326 326 327 328 328 327 326 326 325 325 325 323 321 319 317 315 313 313 313 312 311 311 311 312 313 315 317 319 321 323 324 325 326 325 324 328 333 334 335 336 338 338 335 332 332 331 329
327 327 326 325 324 326 325 326 327 327 326 326 328 329 331 332 332 332 332 331 331 331 331 330 330 330 329 329 329 327 327 326 325 323 321 320 319 319 320 322 323 324 324 324 323 322 320 318 315 312 309 307 305 304 302 302 302 302 301 301 301 302 303 305 307 311 314 317 320 322 324 326 326 328 331 332 333 335 337 337 335 334 334 333 331
327 327 325 325 323 325 325 326 327 327 326 325 326 328 329 330 330 331 330 330 330 329 329 329 327 326 328 327 326 325 325 324 321 317 315 313 311 310 310 312 315 318 319 318 317 314 310 306 303 301 300 299 299 298 298 298 298 298 298 298 298 298 299 299 300 302 306 309 314 318 321 324 326 328 331 332 332 334 336 337 337 337 336 333 332
326 326 325 324 322 324 324 326 326 325 325 325 328 329 328 329 331 330 330 330 328 328 328 327 323 322 325 325 324 323 321 318 313 311 309 306 304 303 302 303 305 308 309 308 306 303 300 299 298 298 298 298 298 298 298 298 298 298 298 298 298 298 298 299 299 300 301 303 307 312 317 322 325 327 328 330 332 332 334 336 337 337 336 334 332
326 326 325 323 321 322 323 325 325 325 324 325 328 327 325 327 329 328 328 328 327 328 327 324 319 320 323 322 321 317 313 309 307 305 303 302 300 299 299 299 299 300 301 300 299 298 298 297 298 298 298 298 297 298 298 298 298 298 298 298 298 299 299 300 300 301 301 302 302 307 313 318 321 323 325 328 330 331 333 335 335 336 335 333 331
326 326 324 324 321 321 321 323 323 323 321 321 326 325 325 325 325 325 325 326 326 327 324 319 317 317 316 315 312 308 306 304 302 301 300 299 298 298 298 298 298 298 298 297 297 297 297 297 297 298 298 298 298 298 298 298 297 297 297 298 298 299 300 301 303 303 304 304 304 306 310 315 318 320 323 326 329 329 331 333 334 335 335 334 334
326 325 325 324 322 321 320 321 321 322 319 320 325 326 326 326 326 325 325 326 325 324 320 315 313 310 307 305 303 302 301 300 299 299 299 298 298 298 298 298 297 297 297 297 297 297 297 297 298 298 298 298 298 298 298 298 297 297 297 297 298 298 299 300 302 304 305 307 308 309 311 314 317 319 322 325 326 327 328 330 331 332 334 334 335
325 325 325 323 322 320 319 320 320 321 319 319 324 325 325 325 325 324 324 323 321 318 313 310 307 303 301 300 299 299 298 298 298 298 298 298 298 298 298 297 297 297 297 297 297 297 297 297 298 298 298 298 298 298 298 298 298 297 297 297 297 297 297 298 298 299 302 305 308 311 312 315 316 317 319 322 323 324 326 327 328 329 330 330 331
325 324 324 323 321 320 319 319 319 319 317 317 320 321 321 321 320 319 318 316 312 309 306 304 301 300 299 299 299 298 298 298 298 298 299 298 298 298 298 297 297 297 297 297 297 297 297 297 298 298 298 298 298 298 298 298 298 297 297 297 297 297 296 296 297 297 297 299 302 307 311 314 315 315 316 319 320 321 323 324 325 326 327 328 328
323 322 322 321 320 319 318 317 317 316 314 314 315 316 315 314 313 311 309 307 305 303 301 300 299 299 299 299 298 298 298 298 298 298 298 298 298 298 297 297 297 297 297 297 297 297 297 297 297 297 297 297 297 297 297 297 297 297 297 297 297 297 297 296 297 297 297 296 297 299 303 308 311 313 314 316 318 318 319 321 322 322 323 324 324
321 321 320 319 319 317 317 316 316 314 312 311 310 311 310 307 306 304 303 302 301 299 299 299 299 299 299 299 298 298 298 298 298 298 298 298 298 297 297 297 297 296 296 296 296 296 296 296 296 297 297 297 297 297 297 297 297 297 297 297 297 297 297 297 297 297 297 297 297 297 297 299 303 306 310 312 314 315 316 317 318 319 320 320 320
319 319 319 318 317 316 315 315 315 314 311 309 308 307 305 302 301 300 300 299 299 298 298 298 298 299 299 299 298 298 298 298 298 298 298 297 297 297 297 297 297 296 296 296 296 296 296 296 296 296 296 296 296 296 296 296 296 296 296 296 296 296 296 296 297 297 297 297 297 297 297 297 298 301 305 308 309 311 312 313 314 315 315 316 315
318 318 318 318 317 316 315 314 314 314 311 308 306 304 301 300 299 299 299 298 298 298 298 298 299 299 298 298 298 297 297 297 297 298 298 297 297 297 297 297 297 297 297 296 296 296 296 296 296 296 296 296 296 296 296 296 296 296 296 296 296 296 296 296 296 296 297 297 297 297 297 297 298 300 304 307 307 307 308 308 310 310 311 311 311
316 317 317 317 316 316 315 314 312 313 311 307 305 302 300 299 299 299 299 298 298 298 298 298 298 298 298 298 297 297 297 297 297 297 297 297 297 297 297 297 297 297 297 297 297 297 297 296 296 296 296 296 296 296 296 295 296 296 296 295 296 296 296 296 296 296 296 296 297 297 297 297 297 299 303 306 308 307 306 307 308 309 311 312 313
315 316 316 316 315 315 314 313 312 312 310 306 304 301 299 299 299 298 298 298 298 298 298 298 298 298 298 297 297 297 296 296 296 296 297 297 297 297 297 297 297 297 297 297 297 296 296 296 296 295 295 295 295 295 295 295 295 295 295 295 295 295 295 296 295 295 295 295 296 296 296 296 296 297 300 303 306 306 306 307 308 309 312 314 316
313 314 315 315 315 315 314 313 312 312 310 306 303 301 299 299 298 298 298 297 297 297 297 297 297 297 297 297 297 296 296 296 296 296 296 296 297 297 297 297 297 297 297 296 296 296 296 296 295 295 295 295 295 295 295 295 295 295 295 295 295 295 295 295 295 295 295 295 295 295 296 295 296 296 297 300 304 306 307 308 308 310 313 315 316
310 312 314 314 314 314 313 313 312 312 310 305 303 300 299 299 298 298 297 297 297 297 297 297 297 297 297 297 296 296 296 296 295 295 296 296 296 297 297 297 297 296 296 295 295 295 295 295 294 295 295 294 295 295 295 295 295 295 295 295 295 295 295 295 295 295 295 295 295 295 295 295 295 295 295 297 302 307 309 309 309 311 313 314 315
308 310 312 313 313 313 313 312 312 312 310 306 303 300 298 298 298 298 297 297 296 296 296 297 297 297 297 297 297 296 296 295 295 295 296 296 296 297 297 296 296 295 295 294 294 294 294 294 294 294 294 294 295 295 295 295 295 295 295 295 295 295 295 295 295 295 295 295 295 295 295 295 295 295 295 295 299 305 308 309 311 312 313 314 314
306 307 309 310 312 313 312 312 311 311 310 306 303 300 298 298 298 297 297 297 296 296 296 297 297 297 297 297 296 296 296 295 295 295 296 296 296 296 296 295 295 295 294 294 294 294 294 294 294 295 295 294 295 295 295 295 295 295 295 295 294 295 294 294 294 294 294 295 294 294 294 295 295 294 295 294 296 302 307 309 310 312 312 313 314
304 305 306 307 309 311 311 311 311 310 310 307 303 301 298 298 298 297 297 297 296 296 296 297 297 297 297 296 296 296 296 295 295 295 296 296 295 296 295 295 294 294 294 294 294 294 295 295 295 295 295 295 295 295 295 295 294 294 294 294 294 294 294 294 294 294 294 294 294 294 294 294 294 294 294 294 296 301 305 308 310 311 312 312 313
305 305 305 305 306 308 309 310 310 310 310 308 304 301 299 298 298 298 298 297 297 296 296 296 297 297 297 297 297 296 296 295 296 295 295 295 295 295 294 294 294 294 294 294 295 295 295 295 295 295 295 295 295 294 294 294 294 294 294 294 294 294 294 294 294 294 294 294 294 294 294 294 294 294 295 295 296 299 303 306 308 310 310 311 312
305 304 305 305 305 305 307 308 309 309 309 308 305 302 299 298 298 298 298 297 297 296 296 296 296 296 297 297 297 297 296 295 295 295 295 295 294 294 294 294 294 294 294 294 295 295 295 295 295 295 295 295 294 294 294 293 293 293 294 294 294 294 294 294 294 294 293 293 293 294 294 294 294 295 295 296 296 297 298 302 305 308 309 309 310
305 305 305 304 304 305 306 307 308 308 308 308 306 303 300 298 297 298 297 297 297 296 296 296 296 296 296 297 297 297 296 295 295 294 294 294 294 294 295 294 294 294 294 294 295 295 295 295 295 295 295 294 294 293 293 293 293 293 293 293 293 293 293 293 293 293 293 293 294 294 294 294 295 295 295 295 295 296 296 298 301 304 307 308 308
306 306 305 304 305 305 304 305 306 306 306 306 305 303 300 298 298 297 297 297 296 296 296 296 296 296 296 296 296 296 295 295 294 294 294 294 294 294 295 294 294 294 294 294 295 295 295 295 295 295 295 294 293 293 293 293 293 292 292 293 293 293 293 293 292 293 293 294 294 295 295 295 295 295 295 295 296 296 295 295 296 299 303 305 305
306 305 304 305 305 304 304 304 304 305 305 304 303 302 300 299 298 298 297 296 296 296 296 296 296 296 296 296 296 295 295 295 294 293 293 293 294 294 294 294 294 294 294 294 294 295 295 294 294 294 294 293 293 292 293 292 292 292 292 292 292 292 292 292 292 293 294 295 295 295 295 296 296 295 295 295 295 295 295 294 294 294 297 299 300
306 305 305 306 305 304 303 303 303 304 304 303 303 302 301 300 299 299 298 296 296 296 296 296 296 296 295 295 295 294 294 295 294 293 293 293 293 294 294 294 294 294 294 294 294 295 294 294 294 294 293 293 293 292 292 292 292 292 292 292 292 292 292 292 292 293 295 295 295 294 295 296 296 295 294 293 293 294 294 293 293 293 294 296 296
306 306 306 305 304 304 303 303 303 303 303 303 303 302 302 301 300 299 298 297 296 296 296 296 295 295 295 295 295 294 294 296 295 293 293 293 293 293 293 293 293 294 294 294 294 294 294 294 294 293 293 292 293 292 292 292 292 292 292 292 292 292 292 292 292 294 295 294 293 292 293 294 295 294 293 293 293 293 294 293 294 294 293 294 294
307 306 306 305 304 304 303 303 303 303 303 302 302 302 302 301 300 300 299 297 296 296 296 295 295 294 294 294 294 294 295 296 295 293 292 293 293 293 293 293 293 293 293 293 293 293 293 293 293 293 292 292 292 292 292 292 292 292 292 292 292 292 292 291 292 294 294 292 291 291 292 292 293 293 293 293 293 293 294 294 294 293 291 291 292
306 306 306 305 305 304 303 302 302 302 302 301 301 301 301 301 300 300 299 298 296 296 295 296 295 295 294 294 293 294 295 296 296 293 292 292 292 292 292 292 292 293 293 293 293 293 292 292 292 292 292 292 292 291 291 291 292 292 292 292 292 292 292 291 292 294 293 291 291 291 291 292 293 293 292 291 291 291 292 293 292 291 290 290 291
306 306 305 305 305 304 303 302 301 301 301 301 300 300 300 300 299 299 298 297 297 297 297 297 297 296 296 295 294 294 295 296 295 294 291 291 291 291 292 292 292 292 292 292 292 292 292 292 292 292 292 292 291 291 291 291 291 292 292 292 292 292 291 291 292 293 291 291 291 290 290 291 292 292 290 289 290 290 291 291 290 289 289 290 290
306 306 305 305 304 304 303 302 301 301 300 299 299 299 299 298 298 298 297 297 297 297 298 298 298 297 296 296 295 294 294 295 295 293 291 291 291 291 291 292 292 292 292 292 292 292 292 292 292 292 291 291 291 290 290 291 291 292 292 292 292 292 291 291 293 292 290 291 290 289 290 290 291 291 289 288 289 289 289 289 289 289 289 289 289
305 305 305 305 304 304 303 302 301 300 299 299 299 299 298 298 297 297 297 297 298 298 298 298 298 298 297 297 296 294 294 295 295 293 291 290 290 290 291 291 291 292 292 292 292 292 292 292 292 292 291 291 290 290 290 291 291 291 292 292 291 291 291 291 292 291 290 291 289 288 289 289 289 289 288 288 288 288 288 288 288 288 288 288 288
305 305 304 304 305 304 303 302 301 299 300 300 299 299 299 299 298 298 298 298 298 298 298 298 298 298 297 297 297 295 293 294 294 293 291 290 290 290 291 291 291 292 291 291 291 291 292 292 292 292 291 290 290 290 290 290 290 288 289 292 292 292 291 291 292 291 290 290 289 288 288 287 288 288 288 288 288 288 288 288 287 287 287 287 288
305 305 304 304 304 303 302 301 300 300 300 299 299 299 299 299 299 298 298 298 298 298 298 298 298 298 298 298 297 296 294 293 293 292 290 290 290 290 290 291 291 291 291 290 291 291 291 292 291 291 291 289 289 290 289 289 288 287 288 292 293 294 294 291 291 291 290 290 289 288 288 287 288 288 287 288 287 287 287 287 287 287 287 287 287
304 304 304 303 303 303 302 301 300 300 299 299 299 299 298 298 298 298 297 297 297 297 297 297 297 297 298 298 297 296 295 292 292 291 290 290 289 290 290 290 291 291 291 291 292 292 292 292 291 291 290 290 289 289 289 288 288 289 290 291 289 291 296 292 288 290 289 290 289 288 288 287 287 287 286 287 286 286 287 287 287 286 287 287 287
303 303 303 303 303 302 302 301 300 299 299 299 299 298 298 297 297 297 297 296 296 295 295 295 296 296 297 297 297 296 295 293 291 291 290 290 289 290 290 290 290 290 290 291 292 292 292 291 291 290 290 290 289 289 288 287 287 288 289 291 290 292 296 290 287 290 289 289 289 288 288 287 287 286 286 286 286 286 286 286 286 287 286 286 287
303 304 304 304 303 302 301 300 299 299 299 299 298 298 298 297 297 296 296 295 295 295 295 295 296 297 297 296 296 296 295 294 292 291 291 290 289 289 289 290 290 290 290 291 291 291 291 291 290 290 289 289 289 289 288 287 287 287 287 289 290 290 292 288 289 293 289 288 288 287 287 286 286 286 285 286 285 285 285 285 286 287 286 286 286
304 304 303 303 302 301 300 299 299 299 298 298 298 298 297 297 297 297 297 296 295 295 296 297 297 297 296 296 296 295 295 295 293 291 290 290 289 289 289 289 289 290 290 290 290 291 291 290 290 289 288 288 288 288 288 287 286 287 287 287 287 287 287 287 290 292 290 289 287 286 286 286 286 285 285 285 285 284 284 284 286 286 286 286 286
304 304 302 302 301 301 300 299 299 298 298 298 298 298 298 297 297 297 297 297 297 297 297 296 296 295 295 295 295 295 295 294 293 291 290 290 289 289 289 289 289 289 290 290 290 290 290 290 289 289 288 288 287 288 288 287 287 287 286 286 286 286 285 285 286 287 288 289 287 285 285 285 285 284 284 285 284 284 284 285 286 286 286 286 286
303 302 301 302 301 300 300 299 298 298 298 298 298 298 298 298 297 297 297 297 297 297 296 295 295 295 294 294 294 294 294 294 293 291 290 290 289 289 289 289 288 289 289 290 290 290 290 290 289 289 288 288 287 287 287 287 287 287 287 285 285 285 284 284 284 284 285 287 287 286 284 284 284 284 284 284 284 284 284 285 286 286 286 286 285
301 301 301 301 300 300 299 298 298 298 297 298 298 297 298 297 297 297 297 297 296 296 295 295 294 294 294 294 294 294 294 294 293 292 291 289 289 289 289 288 288 288 289 289 289 289 290 290 289 289 289 288 287 287 287 287 286 286 286 286 285 284 284 284 284 284 284 285 286 284 283 283 283 283 283 283 284 284 284 285 285 285 286 286 285
300 300 300 300 300 299 298 298 297 297 297 297 297 297 297 297 297 297 297 297 296 295 295 294 294 293 293 293 293 294 294 294 293 293 292 290 289 289 288 288 288 288 288 288 289 289 290 289 289 289 288 288 287 287 286 286 286 286 285 285 285 285 285 285 284 284 284 284 285 284 282 282 282 283 283 283 284 284 285 285 285 285 285 285 285
Wind_Speed
24 22 21 21 18 17 15 15 15 15 16 16 16 15 15 14 14 14 13 13 12 11 11 10 10 10 10 10 9 9 9 8 8 7 7 7 8 8 7 6 6 5 4 4 4 4 4 3 4 4 4 4 5 5 5 6 6 6 7 7 7 8 9 10 10 11 12 12 13 12 11 9 6 5 6 4 3 4 4 5 5 6 6 6 6
30 25 23 23 20 19 17 15 15 15 15 15 15 15 15 15 15 15 14 13 13 12 11 10 10 10 10 10 9 9 8 8 8 7 7 7 7 7 7 6 5 5 4 4 4 4 4 4 4 4 4 4 4 4 4 5 5 6 6 6 7 7 8 8 9 9 9 10 11 11 10 9 7 6 7 6 3 4 4 4 6 6 6 6 6
32 28 25 24 22 20 18 17 16 16 15 15 15 15 15 15 15 15 14 13 13 12 12 11 10 10 10 10 10 9 9 8 8 8 8 8 8 8 7 7 6 5 5 4 4 4 3 3 4 4 5 5 4 3 3 4 5 5 5 5 5 6 7 7 8 8 8 7 8 9 8 8 6 5 5 5 4 4 5 5 6 6 7 7 6
31 29 27 25 24 21 19 19 17 17 16 16 15 15 15 15 14 14 14 14 13 13 12 12 11 11 10 10 10 10 9 9 9 9 8 8 9 9 8 8 7 6 5 5 4 4 4 4 5 5 5 6 5 4 4 4 4 3 3 3 3 5 5 6 7 7 8 7 6 6 7 7 6 4 3 4 4 5 5 4 4 5 7 7 8
31 29 28 26 25 23 20 20 18 18 18 17 16 16 15 15 15 14 14 14 14 13 13 13 11 11 11 10 10 10 9 9 9 8 8 8 9 9 8 8 8 7 6 6 5 6 6 6 5 4 3 3 4 4 4 3 3 2 2 2 3 4 4 4 5 5 6 6 6 4 5 6 6 6 4 3 4 6 5 4 4 5 6 8 9
31 29 28 27 26 25 23 20 19 19 19 18 17 18 17 16 16 15 15 14 14 13 13 12 11 11 10 10 10 9 9 8 8 7 7 8 8 8 8 8 7 7 6 6 6 7 6 5 3 2 1 1 2 2 2 2 1 1 1 2 3 4 4 4 4 4 4 4 5 4 3 3 5 6 6 4 3 4 5 5 6 6 7 9 9
29 29 27 27 25 26 25 22 19 19 19 17 17 17 18 18 17 16 16 14 14 13 13 13 12 11 10 10 9 9 8 7 6 6 6 7 7 7 8 8 7 7 6 6 6 5 4 3 2 2 2 1 1 1 0 1 1 2 3 4 5 5 6 6 6 5 5 4 3 4 2 1 2 4 6 6 3 2 4 6 6 7 8 9 9
27 29 27 27 24 25 25 23 22 21 20 19 19 18 17 17 17 17 16 15 14 14 14 13 12 11 11 10 10 9 8 7 6 6 6 7 7 7 7 7 7 7 7 6 4 4 3 3 3 2 1 1 2 2 3 4 4 5 5 6 7 7 7 8 7 7 6 5 4 3 2 1 0 2 3 4 5 3 3 5 6 7 8 8 8
26 27 25 26 24 24 24 23 23 22 22 21 20 20 18 17 17 16 16 16 15 15 14 13 12 12 11 10 10 9 8 7 7 7 6 7 8 8 8 7 7 7 8 5 3 3 4 4 4 3 3 4 4 5 5 6 6 6 7 7 8 8 9 9 9 8 7 6 4 4 3 2 2 1 1 1 4 4 4 5 6 7 8 8 7
26 25 24 24 23 23 23 23 23 22 23 21 20 20 19 18 18 16 16 16 15 15 14 13 13 12 12 11 11 10 9 8 8 8 7 8 8 9 9 9 8 8 7 5 5 3 4 5 4 4 5 5 5 5 5 6 6 6 7 7 8 8 9 9 9 9 8 7 5 4 4 3 3 1 0 1 2 5 5 6 8 8 8 8 8
25 24 24 23 23 23 23 22 20 21 23 22 21 20 20 20 19 17 17 17 16 16 15 14 14 14 13 12 12 11 10 10 10 10 9 9 9 9 9 9 9 9 8 6 5 4 4 4 4 4 4 4 4 4 4 4 5 5 6 7 7 7 8 8 8 8 8 7 6 5 4 4 3 2 1 1 2 5 7 7 8 8 8 8 9
26 25 24 23 24 24 24 23 20 21 23 23 23 21 21 22 20 18 18 17 17 17 15 16 16 16 15 14 13 12 11 11 12 11 10 9 9 8 8 9 9 9 9 8 6 5 4 3 3 3 3 3 2 2 2 2 2 3 4 5 5 6 6 6 6 6 7 6 6 5 5 4 3 2 2 2 3 5 6 8 9 8 6 8 9
27 26 25 24 25 24 25 24 22 23 23 23 21 18 21 22 19 18 18 18 18 17 15 15 17 16 15 15 14 13 12 12 12 10 9 8 8 8 8 9 9 10 9 8 7 5 4 4 4 3 4 3 3 2 2 1 0 1 2 3 4 4 4 5 5 4 4 4 4 4 4 3 2 2 3 4 6 6 6 9 10 6 5 8 10
29 28 26 25 25 25 26 25 25 24 24 24 20 20 24 22 19 20 21 19 18 16 15 16 17 16 14 14 13 13 13 12 11 9 9 8 8 8 9 9 9 10 9 8 7 6 6 6 6 5 5 4 4 4 3 3 3 3 3 4 4 4 4 4 4 3 3 3 2 2 2 2 2 1 4 6 8 8 6 7 9 7 6 11 12
29 28 27 26 25 26 26 26 26 25 25 24 20 20 21 21 20 21 21 19 18 16 17 18 17 16 15 15 14 13 12 11 10 10 10 9 10 10 10 10 10 10 9 8 8 7 7 6 6 5 5 5 4 4 5 5 5 5 5 5 5 5 5 5 4 4 3 2 2 1 1 0 1 1 4 7 10 9 5 5 8 7 7 10 10
28 27 27 26 26 26 26 26 25 24 25 23 19 19 19 19 19 20 19 18 18 17 19 19 17 16 16 15 14 14 12 12 11 11 11 11 11 11 11 10 10 10 9 8 8 7 6 5 5 5 5 4 4 4 5 5 5 5 6 6 6 6 6 6 6 5 4 3 3 2 2 1 2 2 3 5 8 7 5 5 6 6 6 9 8
27 27 27 26 27 27 26 26 25 25 25 23 20 21 21 19 19 19 19 19 19 19 19 19 17 16 16 15 15 14 14 13 13 13 13 13 13 12 12 11 11 10 9 9 8 7 6 5 4 4 4 4 4 4 4 4 4 4 5 5 6 6 6 6 6 6 5 4 3 3 2 1 2 2 2 3 5 5 5 5 5 4 5 8 10
28 27 27 27 28 28 27 27 26 25 25 24 23 23 23 21 21 22 21 21 21 20 19 18 18 17 17 16 16 15 15 15 15 15 15 15 15 14 13 12 11 11 10 9 8 7 6 5 4 4 3 3 2 2 2 2 2 3 3 3 4 5 5 5 5 5 5 5 4 3 2 1 1 1 2 3 3 4 5 5 5 5 6 8 8
28 28 28 28 29 29 29 28 27 27 26 26 26 25 25 24 24 24 23 21 21 20 19 19 18 18 18 17 17 17 17 17 17 16 16 16 15 15 14 13 12 11 10 9 8 7 6 5 4 4 3 3 2 2 1 1 0 1 1 2 2 3 3 4 4 4 4 4 3 3 2 2 2 3 4 5 5 6 6 7 7 7 8 9 10
28 29 29 29 29 30 30 30 29 28 28 28 27 27 26 25 24 23 22 21 20 20 19 20 19 19 18 17 17 17 17 17 17 17 16 15 15 15 15 14 13 12 11 10 9 8 7 6 5 5 4 4 3 3 3 2 2 1 1 0 1 1 1 2 3 3 3 3 4 3 2 1 1 3 4 6 7 8 8 9 9 10 11 12 12
30 31 31 31 31 31 31 31 31 30 30 29 28 27 27 26 25 23 22 21 21 20 21 21 20 20 19 17 17 17 17 17 18 17 17 16 16 15 15 14 13 12 12 11 10 9 8 6 6 5 4 4 4 3 3 3 3 3 2 2 1 1 0 1 1 2 2 3 3 3 3 3 2 2 3 5 6 8 9 10 11 11 12 13 13
32 33 33 33 33 33 33 32 32 32 31 30 29 28 27 27 25 24 22 22 22 22 22 22 21 20 19 18 18 18 18 18 18 18 17 17 16 16 15 14 13 13 13 12 11 10 9 7 6 5 5 4 3 3 3 3 3 3 2 2 2 2 1 1 1 1 2 2 3 3 3 3 3 3 4 4 5 6 7 8 9 10 11 11 11
34 37 38 37 36 35 34 34 33 33 33 32 30 29 28 27 26 24 23 23 23 23 23 22 22 20 20 20 20 20 19 19 19 19 18 18 17 16 16 15 14 13 13 12 11 10 8 7 6 5 5 4 4 3 3 3 3 2 2 2 2 2 2 1 1 1 1 1 2 2 2 2 2 3 4 5 6 6 6 6 7 8 9 10 10
40 41 40 39 38 37 36 36 35 35 35 33 32 30 30 28 27 25 24 24 23 23 23 22 22 21 21 21 21 21 20 20 20 20 19 19 18 17 16 16 15 14 13 11 10 9 8 7 6 5 5 4 4 3 3 3 3 3 2 2 2 2 2 1 1 1 2 2 2 2 2 2 2 3 4 5 6 6 6 7 7 8 10 11 11
37 36 38 41 41 40 39 38 37 36 36 35 34 32 31 30 28 26 26 25 24 24 24 24 24 24 23 23 23 22 22 22 21 21 20 19 19 18 18 17 16 15 13 11 10 9 8 7 6 6 5 4 4 4 4 3 3 3 3 3 2 2 2 2 2 2 2 2 3 3 3 3 3 3 3 4 5 6 8 8 8 9 11 12 12
31 35 40 42 43 42 41 39 39 38 38 37 35 34 33 31 30 28 27 27 26 25 26 26 26 26 25 25 25 25 24 24 23 23 22 21 21 20 20 18 16 14 13 12 11 10 9 8 7 6 5 4 4 3 3 3 3 3 3 3 3 3 3 3 3 3 3 3 4 4 4 4 4 4 3 4 6 8 9 9 9 10 11 11 12
33 38 40 40 42 43 42 41 41 41 40 38 37 35 35 33 31 30 29 29 28 28 28 28 28 27 27 27 27 27 26 26 25 24 24 23 23 22 20 18 16 14 13 12 11 10 9 8 7 6 5 4 3 3 3 3 2 2 3 3 4 4 4 4 4 5 5 5 4 5 5 5 5 4 4 4 6 8 9 9 10 10 10 11 12
32 35 36 38 42 44 44 43 43 43 42 41 39 38 37 34 33 32 31 30 30 30 30 30 29 29 28 28 28 28 28 28 27 26 26 25 24 22 20 18 16 14 13 12 11 10 8 7 6 5 5 4 3 3 2 2 2 2 3 3 4 5 6 6 6 6 6 6 5 5 5 5 4 4 4 4 5 6 8 9 9 10 10 10 11
33 36 36 38 41 44 45 45 45 45 44 43 41 40 39 36 35 34 33 32 32 31 31 30 30 30 30 30 30 30 30 29 29 28 27 26 25 22 20 18 17 15 13 12 11 9 8 6 5 4 4 3 2 2 2 2 2 2 3 4 5 6 7 8 7 7 7 7 6 5 5 4 4 4 4 5 5 6 7 8 9 9 10 10 10
38 36 37 40 40 42 45 47 47 46 46 45 44 42 41 39 38 37 35 34 33 32 32 32 31 31 31 31 32 32 31 30 30 29 28 27 25 23 21 18 17 15 13 12 10 9 7 6 4 3 3 3 2 2 2 2 2 3 4 5 5 6 8 8 8 8 8 7 7 5 4 4 4 4 6 7 8 8 8 8 9 9 9 10 11
36 35 40 40 39 41 44 47 47 46 46 46 46 45 43 42 40 38 37 36 35 34 34 34 33 33 33 33 34 33 32 31 30 30 29 27 25 23 21 19 17 15 13 12 10 9 7 5 4 3 2 3 2 2 2 2 3 3 4 5 6 7 7 8 8 8 8 7 7 5 4 3 5 7 8 9 10 10 10 9 9 9 10 11 11
37 41 43 39 39 42 43 45 47 47 46 47 47 46 45 43 42 40 39 38 36 36 36 36 36 35 35 35 35 35 33 31 30 30 28 27 25 24 21 19 17 15 14 12 10 9 7 5 4 3 2 2 2 2 2 2 3 4 4 5 6 7 7 8 8 8 8 7 6 5 5 6 7 9 9 10 11 11 11 11 9 9 11 12 12
42 44 39 38 42 43 43 44 46 47 48 49 48 48 47 45 43 42 41 39 38 38 38 37 37 37 36 36 36 35 33 30 30 29 28 26 25 24 22 19 17 16 14 12 10 8 6 5 4 3 2 2 2 1 1 2 3 4 5 6 7 8 9 8 8 8 7 6 6 7 7 8 8 9 9 9 9 10 10 10 9 9 11 12 12
41 37 36 41 44 43 43 43 45 47 48 48 48 48 47 46 45 43 42 41 40 40 39 38 38 38 37 37 35 33 32 31 30 30 28 27 26 24 22 20 18 16 14 12 10 8 7 5 4 3 2 2 1 0 1 2 3 5 7 7 8 9 9 9 9 7 5 6 8 9 8 8 8 8 8 8 8 8 9 9 10 10 11 11 11
37 35 41 44 43 43 43 43 45 47 48 48 49 48 48 47 45 44 43 42 41 40 39 39 39 38 37 36 34 33 33 32 31 30 29 27 26 24 22 20 19 17 15 13 11 9 8 6 5 4 2 2 1 1 2 4 5 7 8 8 9 10 9 10 8 5 5 8 10 10 9 7 7 6 7 8 8 8 8 9 11 11 11 11 11
39 41 43 41 40 42 43 44 45 47 48 49 49 48 47 46 45 44 43 43 42 41 40 40 39 38 37 36 35 34 34 33 32 31 30 28 27 25 23 21 19 17 15 13 12 10 8 7 6 4 3 2 1 2 3 5 7 8 9 10 10 10 9 9 6 4 6 9 12 12 9 7 6 6 8 9 9 9 9 9 11 12 12 12 11
41 42 40 39 40 42 43 44 46 48 49 48 47 46 46 45 45 44 43 43 42 41 40 40 39 38 37 37 36 36 36 34 33 32 30 29 28 25 23 22 20 18 16 14 13 11 9 8 6 5 4 2 2 3 4 6 8 10 10 11 11 10 7 6 3 4 7 8 13 14 11 8 7 7 9 11 12 11 10 10 11 13 13 13 12
39 39 39 40 41 41 43 44 45 46 46 46 45 44 44 43 42 42 42 42 42 41 40 40 39 38 37 37 37 37 37 35 34 32 31 30 28 26 24 22 20 18 17 15 14 12 10 9 7 6 5 3 2 3 4 6 9 11 12 12 11 8 5 4 3 7 6 10 12 13 13 11 8 9 12 14 14 13 12 12 12 13 13 13 13
36 36 37 39 39 39 41 42 42 42 43 43 42 41 40 40 39 38 39 40 40 40 40 40 39 38 38 38 38 38 38 36 34 33 32 31 29 27 25 23 22 20 18 17 15 13 11 10 8 7 5 2 1 3 5 8 10 11 12 12 10 7 4 1 7 8 12 11 10 13 12 11 10 11 13 14 15 14 14 13 13 14 13 13 13
36 35 36 37 38 39 39 41 42 42 41 40 39 39 38 37 36 36 37 39 40 40 40 40 39 39 39 39 38 38 38 37 35 35 33 32 30 28 26 24 23 21 20 18 16 14 12 10 8 6 4 2 1 3 5 9 10 11 13 12 9 6 4 4 12 11 18 10 11 14 11 11 11 11 12 13 13 13 13 12 12 13 13 13 12
34 35 36 39 41 41 42 43 43 42 43 43 43 43 42 39 38 39 41 41 42 42 42 42 41 41 40 39 39 39 39 38 37 36 34 33 30 29 28 26 24 22 20 17 16 15 13 11 8 7 4 2 1 2 5 8 10 11 13 12 11 7 3 5 12 9 20 9 9 14 11 11 10 8 11 11 12 11 10 11 11 13 13 13 14
34 36 38 40 42 42 43 43 42 43 46 47 47 47 47 46 44 45 46 44 45 45 45 45 44 42 41 40 39 39 39 39 38 37 35 34 32 30 29 27 26 23 20 18 17 16 14 12 9 8 6 4 3 1 3 5 7 7 8 8 10 9 5 3 11 3 18 7 6 12 11 15 10 7 10 10 13 12 11 12 11 13 13 13 15
34 36 38 39 40 41 42 42 43 45 48 48 48 48 47 46 43 42 43 41 42 44 44 43 43 41 40 40 39 39 39 39 38 37 36 35 32 31 30 28 27 24 23 21 20 18 15 13 10 9 8 7 5 3 2 5 6 6 5 3 5 4 4 5 4 7 16 5 3 8 9 15 11 10 13 11 15 14 13 12 11 14 14 14 15
30 33 36 38 39 42 44 44 44 46 47 47 47 45 41 39 36 33 35 34 34 36 36 36 39 39 39 40 40 40 40 39 38 37 36 35 33 32 30 29 27 25 24 23 21 19 16 14 12 10 9 9 7 4 3 5 6 4 4 3 3 2 1 5 6 14 9 8 3 5 8 12 9 13 17 13 16 17 14 14 14 15 13 13 15
30 34 37 40 41 43 44 44 44 44 45 45 44 40 37 36 32 27 27 26 25 28 30 31 34 38 40 42 42 41 40 39 38 37 37 35 34 33 31 30 28 26 25 23 21 18 16 14 12 11 9 8 7 5 6 5 5 4 4 5 3 2 2 2 6 8 2 7 9 10 9 11 9 15 19 13 19 20 17 19 17 14 13 12 13
30 35 37 40 40 40 41 41 41 42 43 43 43 41 40 40 37 33 30 28 25 28 34 36 38 42 43 43 42 41 40 39 38 37 37 36 34 33 31 30 29 27 26 23 21 19 17 15 13 12 10 8 8 7 8 7 5 5 4 5 4 2 4 2 1 2 3 6 8 8 10 12 11 18 18 13 22 24 21 23 18 13 12 11 12
32 34 34 36 37 37 38 40 41 41 42 43 44 43 42 42 42 41 39 37 34 35 40 42 43 44 43 42 42 41 41 40 39 38 38 37 36 34 32 31 29 28 27 24 23 20 18 16 14 13 11 9 8 8 10 9 7 6 5 5 4 4 5 4 3 1 4 5 2 5 9 9 13 20 14 12 22 26 26 23 16 14 12 9 11
31 30 30 32 34 35 37 39 40 40 41 43 45 45 44 44 43 41 39 40 39 38 40 40 40 41 40 40 40 41 41 40 39 39 39 38 37 35 33 32 31 29 28 26 24 22 20 18 16 15 14 12 10 9 10 10 8 9 9 7 5 5 4 4 5 4 2 2 4 5 6 11 18 17 9 13 23 27 27 21 14 14 11 9 11
27 26 28 31 32 33 35 37 38 39 41 44 46 47 46 45 44 42 39 38 37 34 34 35 35 36 38 38 38 39 40 40 39 39 39 39 38 36 35 34 32 30 29 27 25 23 22 20 19 17 15 13 12 10 9 9 9 10 11 10 8 7 4 4 5 6 5 3 3 1 5 16 20 14 8 15 24 27 24 17 13 13 11 10 11
22 23 25 28 30 32 34 37 39 39 41 44 46 47 45 44 44 42 39 36 33 29 28 30 31 33 35 36 37 38 39 39 40 39 39 39 38 37 36 35 33 32 30 28 26 25 23 21 19 17 15 14 13 12 10 9 10 11 11 12 13 11 7 5 6 6 4 3 4 2 3 8 13 16 16 21 27 28 22 14 14 15 11 10 11
18 21 24 27 30 33 35 37 38 38 40 43 45 46 46 45 45 44 41 38 35 32 30 31 31 32 34 35 36 37 38 39 40 40 39 39 39 39 37 35 34 33 31 30 28 26 24 23 21 19 17 15 14 13 12 11 11 12 12 13 14 14 10 8 9 7 3 3 3 4 3 7 12 16 18 25 28 27 21 14 14 15 11 10 10
Wind_Direction
189 186 185 176 172 176 178 179 180 181 181 183 182 184 182 182 180 179 180 178 177 174 173 170 167 163 160 156 157 156 152 151 150 145 142 147 148 148 149 148 144 138 132 122 125 131 133 125 113 107 93 81 68 65 60 52 51 45 39 34 27 26 29 30 32 33 34 39 40 44 48 56 69 63 45 42 88 83 62 59 55 48 39 29 27
186 182 183 176 174 174 175 175 177 179 180 182 182 184 183 182 180 180 181 180 178 174 173 172 166 163 162 157 158 157 151 146 140 133 130 132 136 134 138 143 140 135 130 122 122 122 123 130 123 114 105 96 89 83 68 54 52 48 41 31 24 19 17 21 28 34 38 43 49 55 59 65 67 61 46 33 63 81 72 63 52 48 42 32 25
178 178 181 176 175 174 174 173 175 177 177 179 179 180 179 179 178 178 178 177 175 172 173 169 166 163 160 158 158 155 149 144 136 130 127 127 129 126 130 135 134 129 132 131 124 125 124 122 121 121 114 103 93 87 79 64 58 55 50 38 28 22 15 21 30 38 43 48 54 62 65 70 66 57 55 50 61 73 71 56 45 40 34 25 19
175 177 179 178 178 174 174 175 176 176 175 176 174 175 173 174 175 175 174 174 173 171 171 167 166 162 158 158 155 153 149 146 141 137 137 137 133 128 129 131 130 124 127 132 134 138 136 127 120 126 122 111 105 95 95 87 82 79 69 56 41 30 22 27 33 40 47 50 55 61 63 64 57 47 57 75 76 70 69 51 32 24 17 6 360
176 177 179 181 181 178 175 175 177 178 177 174 170 169 168 169 169 171 171 171 171 170 169 166 165 162 160 157 155 152 150 148 147 148 144 139 131 125 127 128 123 118 121 125 128 129 132 138 128 126 123 119 122 110 109 107 103 99 70 38 24 19 13 22 24 29 39 45 49 55 62 60 52 48 43 72 88 70 63 40 16 7 6 356 350
179 179 182 184 184 183 180 177 177 179 179 174 170 167 166 166 166 166 167 168 168 168 168 165 164 163 160 156 155 153 154 153 149 154 141 125 122 119 120 124 125 119 117 122 121 121 132 150 142 124 126 118 111 102 107 106 82 42 9 347 343 340 335 339 346 354 4 21 37 43 56 59 52 47 36 44 86 72 50 21 12 11 7 0 357
183 183 185 187 186 186 186 183 178 179 178 174 172 171 170 170 170 169 168 168 166 167 171 170 165 164 162 157 159 161 163 154 147 155 136 121 122 122 120 125 132 124 125 140 135 135 153 161 171 165 159 169 98 55 348 327 311 310 306 304 305 307 312 313 316 323 328 337 2 21 26 41 54 44 37 32 15 45 40 12 3 1 356 355 1
186 186 187 188 189 188 189 188 186 185 181 181 180 178 177 176 177 177 175 176 174 174 179 176 168 167 166 161 166 170 162 153 158 154 143 153 159 156 147 131 124 132 151 166 160 182 210 208 215 221 227 249 269 283 287 288 288 287 289 291 292 294 296 299 302 304 307 310 318 339 354 342 337 23 35 29 359 339 8 0 351 347 344 347 354
189 189 189 190 191 191 192 192 193 191 188 188 186 184 184 181 182 181 180 181 180 179 179 175 171 173 171 168 174 174 169 168 165 156 162 184 185 181 177 161 150 160 169 157 136 180 218 231 242 254 268 274 275 278 278 279 281 281 284 285 286 286 286 287 290 293 293 292 294 301 313 320 304 313 348 5 346 338 342 336 332 333 334 339 343
190 190 192 193 194 194 194 194 195 194 193 192 188 187 186 185 184 181 181 180 180 181 180 180 178 179 177 175 175 177 178 168 164 178 195 198 193 189 187 184 180 181 175 148 126 163 216 233 248 258 263 268 269 272 273 274 275 277 280 283 283 283 282 282 282 284 285 285 280 280 285 298 307 290 283 260 317 343 339 320 321 324 326 333 339
191 193 193 194 194 194 194 193 192 193 193 193 192 188 187 187 185 181 182 182 180 180 180 180 178 176 173 171 172 173 167 162 180 200 203 198 197 193 191 191 190 191 189 184 181 205 226 233 239 243 250 256 260 265 269 273 274 275 277 280 284 287 289 287 284 282 280 280 272 268 271 275 290 298 313 264 297 346 343 323 316 314 321 333 342
191 194 194 194 194 194 193 192 190 192 193 194 193 187 188 188 185 183 182 181 178 176 173 172 175 173 168 168 168 164 161 176 196 201 196 193 191 187 185 187 189 192 195 199 205 214 219 216 215 212 218 221 226 233 249 265 275 280 284 287 292 296 300 299 294 289 284 281 273 265 265 265 270 296 329 313 317 336 340 335 321 301 316 336 340
189 193 193 193 194 195 193 193 192 192 193 192 188 184 187 185 180 181 179 180 179 176 170 172 179 175 166 165 163 163 175 191 198 194 190 185 179 176 173 174 177 181 186 190 192 189 181 169 160 153 153 150 146 145 143 127 21 338 333 327 326 325 322 320 311 304 298 290 282 271 266 264 264 310 346 340 340 333 329 340 331 308 319 336 334
190 192 193 193 193 196 195 195 195 194 194 191 187 187 190 186 181 184 185 185 182 175 172 181 186 179 169 166 169 179 190 192 190 185 181 174 167 162 159 161 162 167 170 171 168 160 152 146 143 138 133 121 111 98 82 70 51 34 22 6 1 1 354 348 345 337 327 314 303 287 273 263 258 2 15 5 2 349 330 334 333 325 327 327 326
194 192 192 194 194 197 199 198 198 198 196 192 188 188 189 186 185 187 186 184 179 174 182 192 192 187 184 183 186 191 192 186 182 177 172 166 161 156 153 153 153 156 156 154 149 142 140 137 132 122 112 102 89 72 60 53 44 36 27 17 9 9 7 3 5 5 8 7 5 359 343 231 198 72 36 20 14 3 343 339 336 335 336 327 322
198 195 194 195 197 200 201 201 201 199 196 190 186 184 185 184 184 183 180 178 176 181 193 198 196 195 195 194 196 194 190 185 180 175 170 166 161 158 155 152 151 150 147 143 137 133 130 121 110 99 92 85 77 64 56 48 39 33 25 19 11 7 5 1 360 1 5 11 18 32 53 94 116 91 42 22 15 7 354 352 347 338 348 357 357
198 199 199 199 200 202 203 203 202 200 197 191 187 187 186 185 184 182 181 182 185 192 199 199 199 200 199 197 196 192 188 183 179 175 171 168 164 161 158 155 152 149 145 141 137 134 127 117 104 93 86 75 68 55 47 39 32 29 23 18 12 8 5 1 357 357 358 355 352 359 24 61 84 76 26 7 0 358 349 345 343 321 322 352 3
198 201 203 204 203 204 206 206 204 202 200 196 193 193 192 192 192 193 194 195 198 200 201 201 201 200 198 196 194 189 185 181 178 175 171 168 164 162 159 157 153 149 146 141 138 135 128 124 115 105 96 85 76 59 42 30 20 15 14 13 10 7 7 7 2 2 5 357 348 337 319 329 342 339 340 328 323 330 325 320 322 313 299 313 328
200 204 206 209 208 208 208 207 207 204 202 200 198 198 198 199 199 201 202 202 203 203 202 202 201 199 197 194 191 187 183 181 178 175 172 169 165 162 159 156 152 148 145 141 136 133 132 132 130 131 131 133 138 136 143 138 73 23 13 10 6 4 3 4 7 10 12 6 8 358 319 295 289 297 312 305 298 303 305 304 303 303 300 300 304
204 207 208 212 211 211 209 208 208 207 205 202 202 201 201 202 203 204 204 204 204 204 204 202 201 199 197 194 191 187 184 181 177 176 173 170 166 163 160 157 153 149 146 143 140 139 139 140 141 143 144 147 150 154 155 154 155 148 145 93 34 6 359 1 12 15 18 17 19 24 23 15 308 295 303 298 290 289 291 295 296 296 298 299 302
206 208 210 212 212 212 211 210 209 209 207 205 205 204 205 206 205 206 205 205 205 206 206 204 202 199 198 195 191 189 185 182 180 178 175 173 170 167 164 159 156 153 151 148 147 147 147 146 143 141 140 140 138 141 143 142 146 143 144 141 138 151 100 45 36 29 26 25 23 29 37 44 32 359 328 310 297 289 286 287 291 294 298 300 302
207 207 210 212 212 213 213 213 212 210 208 207 207 207 208 208 207 206 205 206 205 206 207 205 203 199 196 193 191 189 186 185 183 182 180 177 175 172 169 165 163 162 159 158 158 156 154 150 145 143 140 138 138 140 143 141 140 140 138 140 141 141 124 94 56 50 38 23 15 21 28 36 37 29 12 348 325 306 298 296 297 299 304 308 312
209 208 210 211 213 214 214 214 213 211 209 208 208 208 210 210 208 206 205 206 206 207 207 205 203 199 195 193 193 191 189 188 186 185 184 181 179 177 174 172 171 169 168 167 163 158 151 146 138 135 134 131 135 140 147 145 143 140 134 130 124 117 111 100 73 45 28 11 353 352 1 10 18 25 16 3 351 331 317 319 320 320 326 329 334
210 211 211 211 212 214 215 215 214 213 211 209 209 209 211 211 210 208 207 207 207 208 208 206 203 199 196 195 194 192 191 191 190 189 188 184 182 180 179 176 174 172 169 165 158 151 140 134 127 122 123 123 129 132 135 134 133 130 122 113 97 89 84 80 59 27 11 353 332 319 316 323 334 354 1 1 356 342 334 331 328 335 344 348 351
211 212 212 212 213 214 215 215 215 214 212 210 209 210 210 211 211 209 209 208 209 208 207 206 203 200 198 197 196 195 195 195 194 192 190 187 184 182 181 179 177 173 167 160 152 145 135 128 123 121 121 121 124 123 122 120 114 110 100 90 77 64 50 39 20 357 341 334 322 311 306 305 309 319 340 357 355 350 352 346 337 344 352 354 357
212 214 214 214 214 214 215 215 215 214 214 212 211 211 211 211 211 210 210 209 209 207 207 206 204 202 199 199 199 197 197 197 196 194 191 189 188 186 183 181 177 170 161 154 146 138 132 127 122 122 118 114 117 113 112 106 96 84 71 62 51 43 33 18 3 346 331 324 315 306 302 303 307 314 332 350 355 358 1 356 352 356 356 356 357
214 216 216 215 214 214 215 215 215 214 214 213 212 212 212 213 212 212 211 209 208 207 207 207 206 203 201 201 201 201 200 199 198 196 193 191 191 188 184 180 173 166 156 148 142 134 129 125 120 115 107 104 101 94 96 92 81 65 49 39 31 25 15 4 354 344 333 327 321 312 303 303 307 314 338 355 2 2 3 3 2 4 2 360 0
216 218 217 216 216 215 215 215 216 215 215 213 213 214 214 214 213 213 213 211 209 209 209 208 207 205 204 204 204 204 202 201 200 197 195 193 191 188 183 177 169 163 155 147 141 134 129 122 113 104 101 101 93 85 83 81 75 52 32 25 19 10 6 0 352 343 335 329 328 325 315 314 319 327 351 6 14 10 7 9 10 10 10 7 5
221 220 218 218 218 217 216 215 216 216 215 214 214 215 216 215 214 214 213 213 212 211 211 209 209 207 206 207 207 206 204 203 201 199 197 194 190 187 181 175 169 162 156 151 145 138 131 123 113 104 100 97 90 79 76 71 52 30 22 18 10 2 359 354 348 343 336 328 327 332 331 331 342 357 18 35 45 33 17 16 18 17 17 14 12
224 221 220 220 219 217 216 217 217 217 215 214 215 216 216 216 215 214 214 214 214 213 212 211 211 210 209 210 209 208 206 205 203 201 199 195 190 185 181 175 170 165 160 154 149 143 136 128 116 102 88 88 89 79 73 55 35 23 14 10 3 358 354 348 345 339 335 331 328 334 340 350 15 41 56 63 62 52 37 31 25 22 23 21 19
224 222 223 221 218 218 218 217 217 216 215 215 216 217 217 217 216 215 214 214 214 213 212 212 212 212 211 211 211 209 208 207 205 203 200 196 191 186 183 177 173 168 163 159 154 149 143 134 118 99 80 79 82 82 70 40 28 12 4 3 358 354 349 343 339 335 335 336 337 347 4 32 60 70 70 67 63 58 55 50 36 25 24 24 22
223 224 224 219 219 220 219 218 216 215 215 215 216 217 218 218 217 216 215 215 214 214 213 213 213 212 212 212 212 210 208 208 207 206 203 198 193 189 186 180 176 172 166 164 160 155 147 136 121 101 81 74 76 80 54 20 7 360 0 354 349 348 343 339 335 335 339 345 360 19 49 73 76 74 69 64 60 57 57 56 48 33 24 21 18
225 226 222 219 221 220 219 217 215 214 215 216 216 217 218 218 217 216 215 215 214 215 214 214 214 213 213 213 213 211 209 208 208 209 206 201 196 193 188 181 178 174 170 167 162 158 148 139 126 110 94 79 78 65 19 359 352 351 356 351 348 346 341 339 336 339 352 13 38 52 67 73 71 70 66 59 53 48 46 47 45 37 25 17 14
228 224 220 222 222 219 218 216 213 214 215 215 215 216 217 217 217 216 215 215 215 216 215 215 215 214 214 215 214 212 210 209 210 210 208 204 199 195 190 184 180 177 174 170 164 159 150 142 132 124 116 109 126 297 316 330 340 346 352 350 347 345 341 338 338 352 23 47 55 55 58 59 61 65 59 48 39 33 29 29 30 30 25 19 16
227 222 223 224 221 217 216 214 213 214 213 213 214 215 216 216 217 216 215 215 216 216 216 215 216 215 214 215 215 214 212 211 211 212 210 206 201 197 192 187 184 179 176 172 166 162 155 149 144 139 140 157 227 282 315 331 340 344 349 349 347 346 342 335 340 14 51 61 52 36 31 35 47 46 28 21 19 18 17 20 25 24 22 15 11
227 225 225 222 218 217 216 214 213 213 213 213 213 213 214 215 216 215 215 215 216 217 216 216 216 215 215 215 216 215 214 213 212 212 212 209 203 199 194 189 186 182 178 174 168 165 159 158 158 155 162 184 257 302 325 334 339 344 349 349 346 344 338 332 344 53 75 59 30 12 6 5 11 9 7 15 20 20 19 21 23 20 16 7 0
230 226 223 219 217 217 215 214 214 213 212 211 211 211 212 214 215 215 215 216 217 218 217 216 216 215 215 215 217 216 215 215 213 213 213 211 205 200 195 190 188 184 180 175 171 167 164 167 167 161 170 192 240 300 325 333 336 341 348 348 346 344 335 331 355 88 82 37 15 17 23 19 17 17 23 28 22 17 16 18 17 12 6 360 357
232 227 222 220 219 216 214 214 214 213 210 208 208 208 210 212 213 214 214 215 217 218 218 217 217 216 216 217 217 217 217 216 215 213 213 212 207 200 196 192 189 186 181 177 174 171 168 170 170 168 174 193 241 308 326 332 338 342 347 348 348 346 327 328 82 104 45 8 20 34 32 29 32 32 33 28 19 16 17 16 12 6 2 358 357
231 228 223 221 219 216 215 214 212 210 208 207 205 205 207 208 209 211 213 215 216 217 218 218 218 218 218 218 218 218 219 217 216 214 213 212 207 201 198 194 191 188 183 180 177 175 173 172 173 171 168 186 293 334 337 338 343 343 347 354 357 353 329 4 119 84 16 16 49 42 34 34 36 35 30 23 19 21 20 15 8 3 3 1 357
229 226 222 218 217 215 213 212 211 208 204 201 199 200 201 202 204 206 208 212 214 216 217 219 220 220 219 219 219 219 219 218 216 215 213 212 208 202 198 196 194 190 188 185 180 178 176 175 175 169 162 161 341 348 345 343 342 341 347 4 18 359 332 131 134 63 24 51 62 38 47 45 36 33 22 20 22 21 17 9 2 2 3 2 359
223 222 218 215 215 213 211 210 208 204 199 197 196 196 196 196 198 201 205 209 211 213 216 218 219 220 220 219 219 220 219 218 216 214 214 212 208 203 199 197 195 193 191 187 182 180 179 180 178 168 162 160 156 356 354 348 352 353 347 0 26 21 359 143 155 53 25 53 52 39 49 26 17 17 12 18 19 12 5 358 358 4 3 2 3
216 216 215 214 214 212 210 209 205 201 200 199 197 197 198 198 198 201 205 207 209 211 213 215 217 218 218 218 219 219 219 218 217 215 215 213 209 204 201 199 197 194 188 185 186 185 183 183 182 173 165 165 166 67 24 10 22 26 0 357 20 31 43 116 175 34 6 360 45 48 35 15 15 12 9 9 6 359 351 352 358 2 1 3 5
215 214 214 214 211 210 210 208 204 201 201 200 199 199 200 201 201 202 203 203 207 210 212 214 214 215 216 218 219 220 219 219 217 217 216 214 211 206 204 201 199 194 188 188 189 188 186 183 184 181 170 163 158 120 68 45 56 60 49 36 11 23 31 38 173 310 331 285 106 49 19 17 31 17 5 357 357 356 352 355 355 357 2 6 6
214 212 211 210 209 209 209 206 204 202 200 200 200 199 198 198 200 202 201 202 205 208 210 213 213 213 215 217 220 220 219 219 217 217 216 215 212 209 206 203 200 196 193 194 193 190 189 187 186 185 177 168 162 139 116 73 63 71 76 96 62 62 329 4 335 320 323 178 167 350 340 0 14 0 359 1 2 360 358 358 353 355 4 7 10
212 212 211 210 209 209 208 205 203 201 199 199 197 195 193 192 192 193 194 197 200 201 203 208 210 212 214 216 218 218 218 218 218 217 216 215 214 211 209 206 201 198 197 198 197 193 190 191 190 187 184 178 171 152 143 114 77 95 114 136 104 77 224 337 332 328 61 182 269 283 293 329 334 340 350 360 3 0 357 356 355 0 7 10 18
216 217 216 213 211 209 207 203 201 199 198 197 194 192 191 189 186 183 183 186 190 196 202 206 208 211 214 215 216 216 217 218 217 218 217 217 215 212 210 207 204 200 199 198 197 195 192 193 190 187 187 182 176 161 153 147 125 125 130 148 150 170 176 124 9 305 316 286 269 244 285 317 311 328 341 346 353 356 353 354 358 4 8 15 25
224 223 218 214 210 207 204 201 199 198 196 194 193 192 191 190 190 190 190 190 192 200 207 209 211 212 212 214 215 215 216 217 217 218 218 218 217 214 211 209 206 203 201 198 196 196 195 194 191 188 187 183 181 171 161 157 147 147 152 157 166 172 166 152 160 194 314 300 259 264 297 308 303 321 334 331 343 349 349 353 0 6 14 30 29
229 223 216 212 209 205 202 199 197 196 194 193 193 193 193 192 194 194 196 197 199 203 207 208 211 211 210 212 214 214 215 216 217 217 217 218 217 214 212 210 208 205 203 200 197 197 196 193 191 189 188 184 185 183 174 170 164 159 160 166 175 176 178 184 191 188 185 268 295 288 299 308 311 323 325 316 334 344 347 356 8 13 23 36 29
229 219 214 211 207 203 199 196 195 195 194 193 193 195 196 195 195 196 198 201 203 205 205 205 207 208 208 210 212 213 214 215 216 217 217 218 217 215 213 211 208 206 205 202 199 198 197 195 193 192 189 185 186 190 189 184 179 172 169 172 171 163 158 155 176 181 174 228 268 212 320 323 324 326 315 316 330 342 350 1 14 18 24 28 26
225 216 210 206 202 199 196 194 194 194 193 194 193 195 196 197 197 198 199 200 201 203 203 201 203 205 205 207 209 211 213 213 214 216 217 218 217 216 214 212 209 207 206 203 200 199 198 198 195 193 190 189 190 192 195 194 187 183 180 179 172 162 154 141 152 165 173 222 245 247 329 341 325 314 317 325 330 342 356 7 14 15 19 21 18
216 208 202 199 196 194 193 192 193 193 193 194 194 195 197 198 200 200 200 200 198 198 197 197 199 201 201 204 207 210 212 213 214 214 216 217 217 216 216 214 211 209 206 204 202 201 200 198 194 193 192 192 196 196 197 200 193 188 186 183 180 176 176 172 171 177 168 173 263 292 314 333 310 295 313 328 332 345 359 6 11 14 17 13 6